Location: Brno
(49.2000°N, 16.6330°E)
Time: 13:04:39
(UTC+02:00)

Iridium 2 - Visible Passes

Search period start: 28 August 2014 00:00
Search period end: 07 September 2014 00:00
Orbit: 536 x 547 km, 85.5° (Epoch: 27 August)

Date Brightness Start Highest point End Pass type
(mag) Time Alt. Az. Time Alt. Az. Time Alt. Az.
28 Aug 4.3 21:11:16 10° SSW 21:15:13 62° W 21:19:12 10° N visible
29 Aug 4.3 21:04:28 10° SSW 21:08:25 63° W 21:12:24 10° N visible
30 Aug 4.3 20:57:39 10° SSW 21:01:36 64° W 21:05:35 10° N visible
31 Aug 4.3 20:50:49 10° SSW 20:54:46 65° W 20:58:46 10° N visible
01 Sep 4.2 20:43:59 10° SSW 20:47:57 66° W 20:51:56 10° N visible
02 Sep 4.2 20:37:09 10° SSW 20:41:06 67° W 20:45:06 10° N visible
03 Sep 4.2 20:30:18 10° SSW 20:34:16 68° W 20:38:16 10° N visible
04 Sep 4.2 20:23:27 10° SSW 20:27:25 69° W 20:31:24 10° N visible
05 Sep 4.2 20:16:35 10° SSW 20:20:33 70° W 20:24:33 10° N visible
06 Sep 4.1 20:09:43 10° S 20:13:41 71° W 20:17:41 10° N visible
